{"data":{"norad_id":67289,"epoch":"2026-09-20T04:16:37.704288Z","epoch_age_seconds":130796,"freshness":"FRESH","line1":"1 67289U 25313AT  26263.17821417  .00008572  00000+0  31556-3 0  9990","line2":"2 67289  97.3854 337.4313 0009076  28.7109 331.4628 15.28057104 40489","mean_motion":15.28057104,"eccentricity":0.0009076,"inclination_deg":97.3854,"raan_deg":337.4313,"arg_perigee_deg":28.7109,"mean_anomaly_deg":331.4628,"bstar":0.00031556,"rev_number":4048,"period_min":94.237315885022,"perigee_km":475.39493053186,"apogee_km":487.84676297529,"semimajor_km":6859.7578467536,"source":"CELESTRAK","updated_at":"2026-09-21T09:00:16.549623Z"}}